Weather History for TNCM - February, 2015

Change the Weather History Date:

Saturday, February 14, 2015

  Actual Average Record
Temperature  
Mean Temperature 80 °F -  
Max Temperature 83 °F 81 °F 84 °F (1998)
Min Temperature 78 °F 72 °F 71 °F (2001)
Cooling Degree Days 16    
Growing Degree Days 30 (Base 50)    
Moisture  
Dew Point 72 °F    
Average Humidity 74    
Maximum Humidity 83    
Minimum Humidity 61    
Precipitation  
Precipitation 0.00 in 0.06 in - ()
Sea Level Pressure  
Sea Level Pressure 30.03 in    
Wind  
Wind Speed 8 mph ()    
Max Wind Speed 14 mph    
Max Gust Speed -    
Visibility 6.2 miles    
Events      
Averages and records for this station are not official NWS values.
T = Trace of Precipitation, MM = Missing Value Source: Averaged Metar Reports

Daily Weather History Graph

Daily Weather History Graph

Search for Another Location

Airport or City:

Trip Planner

Search our weather history database for the weather conditions in past years. The results will help you decide how hot, cold, wet, or windy it might be!

Date:

Astronomy

Feb. 14, 2015 Rise Set
Actual Time 6:40 AM AST 6:13 PM AST
Civil Twilight 6:18 AM AST 6:35 PM AST
Nautical Twilight 5:52 AM AST 7:01 PM AST
Astronomical Twilight 5:26 AM AST 7:26 PM AST
Moon 2:23 AM AST (2/14) 1:58 PM AST (2/14)
Length of Visible Light 12h 17m
Length of Day
11h 32m
Waning Crescent, 24% of the Moon is Illuminated
Feb 14
Waning Crescent
Feb 18
New
Feb 25
First Quarter
Mar 5
Full
Mar 13
Last Quarter

Hourly Weather History & Observations

Time (AST) Temp. Heat Index Dew Point Humidity Pressure Visibility Wind Dir Wind Speed Gust Speed Precip Events Conditions
12:00 AM 78.8 °F - 71.6 °F 78% 30.06 in 6.2 mi ENE 6.9 mph - N/A   Scattered Clouds
1:00 AM 78.8 °F - 73.4 °F 83% 30.04 in 6.2 mi East 6.9 mph - N/A   Scattered Clouds
2:00 AM 79 °F - 73 °F 76% 30.04 in 25 mi East 9.2 mph - -   Partly Cloudy
2:00 AM 78.8 °F - 73.4 °F 83% 30.04 in 6.2 mi East 8.1 mph - N/A   Scattered Clouds
3:00 AM 78.8 °F - 73.4 °F 83% 30.01 in 6.2 mi ESE 9.2 mph - N/A   Partly Cloudy
4:00 AM 78.8 °F - 71.6 °F 78% 30.01 in 6.2 mi East 4.6 mph - N/A   Partly Cloudy
5:00 AM 78 °F - 72 °F 78% 30.02 in 25 mi ESE 8.1 mph - -   Partly Cloudy
5:00 AM 78.8 °F - 71.6 °F 78% 30.01 in 6.2 mi East 5.8 mph - N/A   Scattered Clouds
6:00 AM 78.8 °F - 71.6 °F 78% 30.01 in 6.2 mi East 6.9 mph - N/A   Scattered Clouds
7:00 AM 78.8 °F - 71.6 °F 78% 30.04 in 6.2 mi East 4.6 mph - N/A   Scattered Clouds
8:00 AM 80 °F - 72 °F 71% 30.07 in 31 mi ESE 8.1 mph - -   Mostly Cloudy
8:00 AM 80.6 °F 85.4 °F 73.4 °F 79% 30.06 in 6.2 mi ESE 8.1 mph - N/A   Mostly Cloudy
9:00 AM 80.6 °F 84.6 °F 71.6 °F 74% 30.09 in 6.2 mi ESE 8.1 mph - N/A   Scattered Clouds
10:00 AM 82.4 °F 87.2 °F 71.6 °F 70% 30.09 in 6.2 mi ESE 9.2 mph - N/A   Partly Cloudy
11:00 AM 83 °F - 72 °F 61% 30.09 in 34 mi SE 10.4 mph - -   Partly Cloudy
11:00 AM 82.4 °F 87.2 °F 71.6 °F 70% 30.06 in 6.2 mi ESE 10.4 mph - N/A   Scattered Clouds
12:00 PM 84.2 °F 89.6 °F 71.6 °F 66% 30.04 in 6.2 mi SE 13.8 mph - N/A   Scattered Clouds
1:00 PM 82.4 °F 88.2 °F 73.4 °F 74% 30.01 in 6.2 mi SE 13.8 mph - N/A   Scattered Clouds
2:00 PM 81 °F - 73 °F 70% 30.00 in 31 mi SE 11.5 mph - -   Partly Cloudy
2:00 PM 82.4 °F 88.2 °F 73.4 °F 74% 30.01 in 6.2 mi SE 11.5 mph - N/A   Scattered Clouds
3:00 PM 80.6 °F 84.6 °F 71.6 °F 74% 29.98 in 6.2 mi SE 12.7 mph - N/A   Scattered Clouds
4:00 PM 82.4 °F 87.2 °F 71.6 °F 70% 29.98 in 6.2 mi SE 12.7 mph - N/A   Scattered Clouds
5:00 PM 82 °F - 71 °F 63% 30.00 in 31 mi ESE 10.4 mph - -   Partly Cloudy
5:00 PM 82.4 °F 87.2 °F 71.6 °F 70% 29.98 in 6.2 mi ESE 10.4 mph - N/A   Scattered Clouds
6:00 PM 80.6 °F 84.6 °F 71.6 °F 74% 30.01 in 6.2 mi SE 12.7 mph - N/A   Scattered Clouds
7:00 PM 80.6 °F 84.6 °F 71.6 °F 74% 30.01 in 6.2 mi SE 12.7 mph - N/A   Partly Cloudy
8:00 PM 80 °F - 71 °F 66% 30.04 in 22 mi ESE 6.9 mph - -   Partly Cloudy
8:00 PM 78.8 °F - 71.6 °F 78% 30.04 in 6.2 mi ESE 6.9 mph - N/A   Partly Cloudy
9:00 PM 80.6 °F 84.6 °F 71.6 °F 74% 30.04 in 6.2 mi ESE 9.2 mph - N/A   Partly Cloudy
10:00 PM 78.8 °F - 71.6 °F 78% 30.06 in 6.2 mi ESE 8.1 mph - N/A   Scattered Clouds
11:00 PM 79 °F - 72 °F 73% 30.07 in 22 mi ESE 6.9 mph - -   Partly Cloudy
11:00 PM 78.8 °F - 71.6 °F 78% 30.06 in 6.2 mi ESE 6.9 mph - N/A   Partly Cloudy